Location: B?dargowo
(53.3916°N, 14.4413°E)
Time: 06:16:43
(UTC+00:00)

ATLAS CENTAUR R/B - Pass Details

Date: 05 February 2023
Orbit: 450 x 653 km, 64.7° (Epoch: 19 March)

Event Time Altitude Azimuth Distance (km) Brightness Sun altitude
Rises 18:51:16 0° 284° (WNW) 2,936 6.3 -26.7°
Reaches altitude 10° 18:54:09 10° 302° (WNW) 1,997 5.0 -27.2°
Maximum altitude 18:57:30 20° 349° (N) 1,414 3.6 -27.7°
Enters shadow 18:57:40 20° 353° (N) 1,413 3.5 -27.7°
